Stanton, MN

8:04 AM CST on December 16, 2019 (GMT -0600)
Stanton

Weather History for KSYN - October, 2019

Change the Weather History Date:

Tuesday, October 1, 2019

  Actual Average (KLVN) Record (KLVN)
Temperature  
Mean Temperature 58 °F -  
Max Temperature 66 °F 68 °F 125 °F (1998)
Min Temperature 50 °F 45 °F 28 °F (1974)
Degree Days  
Heating Degree Days 6    
Growing Degree Days 8 (Base 50)    
Moisture  
Dew Point 53 °F    
Average Humidity 93    
Maximum Humidity 96    
Minimum Humidity 89    
Precipitation  
Precipitation 0.66 in - - ()
Sea Level Pressure  
Sea Level Pressure 29.96 in    
Wind  
Wind Speed 9 mph ()    
Max Wind Speed 18 mph    
Max Gust Speed 23 mph    
Visibility 8.5 miles    
Events Rain , Thunderstorm    
Averages and records for this station are not official NWS values.
T = Trace of Precipitation, MM = Missing Value Source: Averaged Metar Reports

Daily Weather History Graph

Daily Weather History Graph

Search for Another Location

Airport or City:

Astronomy

Oct. 01, 2019 Rise Set
Actual Time 7:09 AM CDT 6:53 PM CDT
Civil Twilight 6:40 AM CDT 7:22 PM CDT
Nautical Twilight 6:06 AM CDT 7:55 PM CDT
Astronomical Twilight 5:32 AM CDT 8:29 PM CDT
Moon 10:33 AM CDT (10/1) 8:58 PM CDT (10/1)
Length of Visible Light 12h 41m
Length of Day
11h 43m
Waxing Crescent, 12% of the Moon is Illuminated
Oct 1
Waxing Crescent
Oct 5
First Quarter
Oct 13
Full
Oct 21
Last Quarter
Oct 27
New

Hourly Weather History & Observations

Time (CDT) Temp. Dew Point Humidity Pressure Visibility Wind Dir Wind Speed Gust Speed Precip Events Conditions
12:15 AM 67.5 °F 64.4 °F 90% 29.84 in 10.0 mi WNW 10.4 mph - N/A Rain Light Rain
12:35 AM 66.7 °F 63.9 °F 90% 29.84 in 7.0 mi NW 11.5 mph - 0.01 in Rain Light Rain
12:36 AM 66.7 °F 63.7 °F 90% 29.84 in 10.0 mi NW 9.2 mph - 0.01 in Rain Light Rain
12:55 AM 66.2 °F 63.5 °F 91% 29.86 in 10.0 mi WNW 8.1 mph - 0.01 in   Overcast
12:56 AM 66.2 °F 63.5 °F 91% 29.86 in 10.0 mi WNW 8.1 mph - 0.01 in   Overcast
1:15 AM 65.3 °F 62.6 °F 91% 29.86 in 10.0 mi NW 8.1 mph - N/A   Overcast
1:16 AM 65.3 °F 62.6 °F 91% 29.86 in 10.0 mi NW 8.1 mph - N/A   Overcast
1:35 AM 64.4 °F 62.2 °F 93% 29.88 in 7.0 mi WNW 8.1 mph - N/A   Overcast
1:55 AM 63.7 °F 61.9 °F 94% 29.88 in 5.0 mi Calm Calm - N/A   Overcast
2:15 AM 63.1 °F 61.7 °F 95% 29.88 in 4.0 mi WNW 5.8 mph - N/A   Overcast
2:35 AM 62.8 °F 61.2 °F 94% 29.88 in 5.0 mi WNW 8.1 mph - N/A   Overcast
2:55 AM 62.4 °F 60.8 °F 94% 29.88 in 3.0 mi WNW 9.2 mph - N/A   Overcast
3:15 AM 61.7 °F 60.3 °F 95% 29.90 in 1.8 mi WNW 12.7 mph 17.3 mph N/A   Overcast
3:35 AM 61.0 °F 59.7 °F 96% 29.93 in 2.5 mi West 11.5 mph - N/A   Overcast
3:36 AM 61.0 °F 59.9 °F 96% 29.93 in 2.5 mi West 12.7 mph - N/A   Overcast
3:55 AM 60.4 °F 59.2 °F 96% 29.92 in 2.5 mi NW 13.8 mph - N/A Rain Light Rain
3:56 AM 60.4 °F 59.0 °F 95% 29.92 in 2.0 mi NW 13.8 mph - N/A Rain Light Rain
4:15 AM 59.2 °F 57.9 °F 96% 29.92 in 3.0 mi NNW 10.4 mph - N/A   Light Drizzle
4:35 AM 59.4 °F 57.6 °F 94% 29.96 in 10.0 mi WNW 6.9 mph - N/A   Light Drizzle
4:36 AM 59.4 °F 57.6 °F 94% 29.96 in 10.0 mi WNW 8.1 mph - N/A   Light Drizzle
4:55 AM 59.2 °F 57.4 °F 94% 29.94 in 10.0 mi NNW 10.4 mph - 0.01 in Rain Light Rain
5:15 AM 58.6 °F 57.2 °F 95% 29.93 in 10.0 mi NW 3.5 mph 10.4 mph N/A Rain Rain
5:35 AM 58.5 °F 57.0 °F 95% 29.95 in 10.0 mi North 6.9 mph - 0.02 in Rain Light Rain
5:55 AM 58.5 °F 56.7 °F 94% 29.96 in 10.0 mi NNW 9.2 mph - 0.03 in Rain Light Rain
6:15 AM 58.1 °F 56.3 °F 94% 29.93 in 10.0 mi North 10.4 mph - 0.01 in Rain Heavy Rain
6:16 AM 58.1 °F 56.3 °F 94% 29.93 in 10.0 mi North 10.4 mph - 0.02 in Rain Heavy Rain
6:35 AM 57.6 °F 55.8 °F 94% 29.97 in 10.0 mi NNW 9.2 mph - 0.02 in Rain Light Rain
6:55 AM 57.4 °F 55.2 °F 92% 29.94 in 10.0 mi NE 6.9 mph - 0.02 in   Overcast
7:15 AM 57.2 °F 55.2 °F 93% 29.95 in 10.0 mi North 9.2 mph - N/A Rain Light Rain
7:35 AM 56.3 °F 54.0 °F 92% 29.96 in 10.0 mi North 8.1 mph - 0.01 in Rain Light Rain
7:55 AM 55.9 °F 53.6 °F 92% 29.98 in 10.0 mi North 4.6 mph - 0.01 in Rain Light Rain
7:56 AM 55.9 °F 53.6 °F 92% 29.99 in 10.0 mi North 5.8 mph - 0.01 in Rain Light Rain
8:15 AM 55.8 °F 53.4 °F 92% 29.96 in 10.0 mi NNE 8.1 mph - N/A Rain Light Rain
8:16 AM 55.8 °F 53.4 °F 92% 29.96 in 10.0 mi NNE 9.2 mph - N/A Rain Light Rain
8:35 AM 55.6 °F 53.2 °F 92% 29.95 in 10.0 mi North 9.2 mph 17.3 mph N/A Rain Light Rain
8:55 AM 55.4 °F 52.7 °F 91% 29.95 in 10.0 mi North 10.4 mph - N/A Rain Light Rain
9:15 AM 55.4 °F 52.5 °F 90% 29.99 in 10.0 mi North 6.9 mph - 0.01 in Rain Light Rain
9:16 AM 55.4 °F 52.3 °F 89% 29.98 in 10.0 mi NNE 8.1 mph - 0.01 in Rain Light Rain
9:35 AM 55.2 °F 52.2 °F 89% 29.94 in 10.0 mi North 15.0 mph - 0.01 in Rain Light Rain
9:36 AM 55.2 °F 52.2 °F 89% 29.94 in 10.0 mi North 15.0 mph - 0.01 in Rain Light Rain
9:55 AM 55.0 °F 52.2 °F 90% 30.02 in 10.0 mi North 8.1 mph - 0.01 in Rain Light Rain
9:56 AM 55.0 °F 52.0 °F 89% 30.02 in 10.0 mi North 8.1 mph - 0.01 in Rain Light Rain
10:15 AM 55.0 °F 51.8 °F 89% 30.02 in 10.0 mi Calm Calm - N/A Rain Light Rain
10:35 AM 54.7 °F 52.3 °F 92% 30.00 in 10.0 mi North 9.2 mph - 0.01 in Rain Rain
10:36 AM 54.7 °F 52.2 °F 91% 30.00 in 10.0 mi North 10.4 mph - 0.01 in Rain Rain
10:55 AM 54.1 °F 52.0 °F 92% 30.00 in 10.0 mi North 8.1 mph - 0.01 in Thunderstorm Thunderstorm
10:56 AM 54.1 °F 52.0 °F 92% 30.01 in 10.0 mi North 8.1 mph - 0.01 in Thunderstorm Thunderstorm
11:15 AM 53.6 °F 51.6 °F 93% 30.05 in 4.0 mi NNW 12.7 mph - 0.06 in Rain Heavy Rain
11:16 AM 53.6 °F 51.6 °F 93% 30.04 in 4.0 mi NNW 12.7 mph - 0.06 in Rain Heavy Rain
11:35 AM 53.6 °F 51.8 °F 94% 29.94 in 10.0 mi NNE 18.4 mph 23.0 mph 0.07 in Rain Light Rain
11:36 AM 53.6 °F 51.8 °F 94% 29.95 in 10.0 mi NNE 16.1 mph 23.0 mph 0.07 in Rain Light Rain
11:55 AM 53.8 °F 51.8 °F 93% 30.01 in 10.0 mi North 5.8 mph - 0.08 in Rain Light Rain
11:56 AM 53.8 °F 51.8 °F 93% 30.01 in 10.0 mi North 6.9 mph - 0.08 in Rain Light Rain
12:15 PM 53.6 °F 51.6 °F 93% 30.00 in 10.0 mi North 11.5 mph - N/A Rain Light Rain
12:16 PM 53.6 °F 51.6 °F 93% 30.00 in 10.0 mi North 11.5 mph - N/A Rain Light Rain
12:35 PM 54.0 °F 51.8 °F 92% 30.00 in 10.0 mi North 6.9 mph - N/A   Overcast
12:55 PM 53.8 °F 51.8 °F 93% 30.00 in 10.0 mi North 9.2 mph - N/A   Overcast
12:56 PM 53.8 °F 51.6 °F 92% 30.00 in 10.0 mi North 8.1 mph - N/A   Overcast
1:15 PM 54.5 °F 52.2 °F 92% 29.98 in 10.0 mi NNE 10.4 mph - N/A   Overcast
1:35 PM 53.8 °F 51.4 °F 92% 29.99 in 10.0 mi North 11.5 mph - N/A   Overcast
1:36 PM 53.8 °F 51.4 °F 92% 29.99 in 10.0 mi NNE 9.2 mph - N/A   Overcast
1:55 PM 53.8 °F 51.6 °F 92% 29.98 in 10.0 mi NNE 11.5 mph 19.6 mph N/A Rain Light Rain
2:15 PM 54.0 °F 51.8 °F 92% 29.97 in 10.0 mi NNE 11.5 mph 16.1 mph N/A Rain Light Rain
2:36 PM 53.1 °F 50.9 °F 92% 29.98 in 10.0 mi North 12.7 mph 17.3 mph N/A Rain Light Rain
2:55 PM 52.7 °F 50.5 °F 92% 29.98 in 2.5 mi North 12.7 mph - 0.07 in Rain Rain
2:56 PM 52.7 °F 50.5 °F 92% 29.98 in 2.5 mi North 11.5 mph - 0.07 in Rain Rain
3:15 PM 52.5 °F 50.7 °F 94% 29.99 in 10.0 mi North 10.4 mph - N/A Rain Light Rain
3:16 PM 52.5 °F 50.7 °F 94% 29.99 in 10.0 mi North 9.2 mph - N/A Rain Light Rain
3:35 PM 52.2 °F 50.4 °F 94% 29.98 in 4.0 mi NNE 11.5 mph - 0.07 in Rain Heavy Rain
3:55 PM 52.0 °F 50.4 °F 94% 29.98 in 4.0 mi NNE 11.5 mph 17.3 mph 0.16 in Rain Heavy Rain
3:56 PM 52.0 °F 50.4 °F 94% 29.99 in 4.0 mi NNE 8.1 mph 17.3 mph 0.16 in Rain Heavy Rain
4:15 PM 52.0 °F 50.4 °F 94% 29.95 in 7.0 mi NNE 16.1 mph 21.9 mph 0.03 in Rain Rain
4:16 PM 52.0 °F 50.4 °F 94% 29.95 in 7.0 mi NNE 16.1 mph 21.9 mph 0.04 in Rain Rain
4:35 PM 52.2 °F 50.5 °F 94% 29.97 in 10.0 mi NNE 10.4 mph 18.4 mph 0.05 in Rain Rain
4:55 PM 52.0 °F 50.4 °F 94% 29.98 in 10.0 mi North 13.8 mph 18.4 mph 0.07 in Rain Rain
5:15 PM 51.8 °F 50.2 °F 94% 29.96 in 4.0 mi NNE 13.8 mph - 0.06 in Rain Rain
5:35 PM 52.0 °F 50.4 °F 94% 29.96 in 10.0 mi NNE 13.8 mph 20.7 mph 0.08 in Rain Light Rain
5:55 PM 51.8 °F 50.2 °F 94% 29.97 in 4.0 mi NNE 9.2 mph - 0.13 in Rain Rain
6:15 PM 51.8 °F 50.2 °F 94% 29.97 in 10.0 mi NNE 10.4 mph - 0.01 in Rain Rain
6:16 PM 51.8 °F 50.2 °F 94% 29.97 in 10.0 mi NNE 10.4 mph - 0.01 in   Drizzle
6:35 PM 51.8 °F 50.0 °F 94% 29.97 in 10.0 mi NE 8.1 mph 18.4 mph 0.02 in Rain Rain
6:36 PM 51.8 °F 50.2 °F 94% 29.97 in 10.0 mi NE 9.2 mph 18.4 mph 0.02 in Rain Rain
6:55 PM 51.8 °F 50.0 °F 94% 29.98 in 10.0 mi NE 9.2 mph - 0.02 in   Drizzle
7:15 PM 51.8 °F 50.4 °F 95% 29.98 in 10.0 mi NNE 9.2 mph - 0.01 in Rain Light Rain
7:16 PM 51.8 °F 50.4 °F 95% 29.98 in 10.0 mi NNE 10.4 mph - 0.01 in Rain Light Rain
7:35 PM 51.4 °F 50.0 °F 95% 29.98 in 10.0 mi North 10.4 mph - 0.01 in Rain Light Rain
7:36 PM 51.4 °F 50.0 °F 95% 29.98 in 10.0 mi North 11.5 mph - 0.01 in Rain Light Rain
7:55 PM 51.1 °F 49.5 °F 94% 29.96 in 10.0 mi NE 12.7 mph 18.4 mph 0.03 in Rain Rain
8:15 PM 51.1 °F 49.6 °F 95% 29.94 in 10.0 mi NNE 11.5 mph 17.3 mph N/A   Drizzle
8:35 PM 50.9 °F 49.5 °F 95% 29.94 in 10.0 mi NNE 16.1 mph 20.7 mph N/A   Light Drizzle
8:36 PM 50.9 °F 49.5 °F 95% 29.95 in 10.0 mi NNE 15.0 mph 20.7 mph N/A   Light Drizzle
8:55 PM 50.9 °F 49.1 °F 94% 29.97 in 10.0 mi North 11.5 mph 19.6 mph N/A   Overcast
9:15 PM 50.9 °F 49.1 °F 94% 29.97 in 10.0 mi NE 11.5 mph - N/A   Overcast
9:35 PM 50.9 °F 49.1 °F 94% 29.98 in 10.0 mi NE 12.7 mph 18.4 mph N/A   Overcast
9:55 PM 50.5 °F 49.1 °F 95% 29.99 in 4.0 mi NNE 12.7 mph 17.3 mph N/A Rain Rain
10:15 PM 50.4 °F 49.1 °F 95% 30.00 in 4.0 mi NNE 9.2 mph - N/A Rain Light Rain
10:35 PM 50.5 °F 49.1 °F 95% 30.00 in 5.0 mi NNE 10.4 mph - N/A   Light Drizzle
10:36 PM 50.5 °F 49.1 °F 95% 30.00 in 5.0 mi North 10.4 mph - N/A   Light Drizzle
10:55 PM 50.5 °F 49.1 °F 95% 30.00 in 10.0 mi North 12.7 mph - N/A   Overcast
11:15 PM 50.5 °F 48.7 °F 94% 29.99 in 10.0 mi NNE 12.7 mph - N/A   Overcast
11:16 PM 50.5 °F 48.7 °F 94% 29.99 in 10.0 mi NNE 13.8 mph - N/A   Overcast
11:35 PM 50.5 °F 48.7 °F 94% 29.98 in 10.0 mi NNE 9.2 mph - N/A   Overcast
11:55 PM 50.7 °F 48.6 °F 92% 29.98 in 10.0 mi NNE 13.8 mph - N/A   Overcast
11:56 PM 50.7 °F 48.6 °F 92% 29.98 in 10.0 mi NNE 12.7 mph 16.1 mph N/A   Overcast